,,PA_Meas_PMT16A,,PR_Meas_QMR101_102,,RH_Meas_QMH101,,SR_Meas_QMS101,,TA_Meas_QMH101,,GenWind,,GenWind,
time,status,PA,status,PR,status,RH,status,SR,status,TA,status,DirAvg,status,SpdAvg,
2016-02-02, 07:24:04,VALID,918.264,VALID,0,VALID,104,VALID,129.789,VALID,19.8588,VALID,141,VALID,0,
2016-02-02, 07:25:04,VALID,918.241,VALID,0,VALID,104,VALID,133.227,VALID,19.9383,VALID,141,VALID,0,
2016-02-02, 07:26:04,VALID,918.253,VALID,0,VALID,104,VALID,138.492,VALID,20.0553,VALID,141,VALID,0,
2016-02-02, 07:27:04,VALID,918.272,VALID,0,VALID,104,VALID,145.69,VALID,20.1513,VALID,141,VALID,0,
2016-02-02, 07:28:04,VALID,918.289,VALID,0,VALID,104,VALID,154.393,VALID,20.3089,VALID,141,VALID,0,
2016-02-02, 07:29:04,VALID,918.313,VALID,0,VALID,104,VALID,166.426,VALID,20.3659,VALID,141,VALID,0,
2016-02-02, 07:30:04,VALID,918.285,VALID,0,VALID,104,VALID,169.005,VALID,20.5024,VALID,141,VALID,0,
2016-02-02, 07:31:04,VALID,918.288,VALID,0,VALID,104,VALID,178.567,VALID,20.639,VALID,141,VALID,0,
2016-02-02, 07:32:04,VALID,918.315,VALID,0,VALID,102.962,VALID,183.617,VALID,20.7755,VALID,141,VALID,0,
2016-02-02, 07:33:04,VALID,918.288,VALID,0,VALID,102.421,VALID,187.055,VALID,20.9527,VALID,141,VALID,0,
2016-02-02, 07:34:04,VALID,918.296,VALID,0,VALID,101.788,VALID,182.972,VALID,21.0876,VALID,141,VALID,0,
2016-02-02, 07:35:04,VALID,918.308,VALID,0,VALID,100.675,VALID,183.617,VALID,21.2047,VALID,141,VALID,0,
2016-02-02, 07:36:04,VALID,918.301,VALID,0,VALID,99.7981,VALID,185.121,VALID,21.3217,VALID,141,VALID,0,
2016-02-02, 07:37:04,VALID,918.316,VALID,0,VALID,100.118,VALID,176.956,VALID,21.4388,VALID,141,VALID,0,
2016-02-02, 07:38:04,VALID,918.339,VALID,0,VALID,99.2035,VALID,174.377,VALID,21.5542,VALID,141,VALID,0,
2016-02-02, 07:39:04,VALID,918.344,VALID,0,VALID,96.7107,VALID,165.889,VALID,21.7526,VALID,141,VALID,0,
2016-02-02, 07:40:04,VALID,918.359,VALID,0,VALID,87.5854,VALID,162.236,VALID,21.8307,VALID,141,VALID,0,
2016-02-02, 07:41:04,VALID,918.359,VALID,0,VALID,88.0809,VALID,165.137,VALID,21.9087,VALID,141,VALID,0,
2016-02-02, 07:42:04,VALID,918.388,VALID,0,VALID,88.2639,VALID,162.021,VALID,22.0454,VALID,141,VALID,0,
2016-02-02, 07:43:04,VALID,918.402,VALID,0,VALID,85.954,VALID,156.219,VALID,22.182,VALID,141,VALID,0,
2016-02-02, 07:44:04,VALID,918.393,VALID,0,VALID,84.6275,VALID,156.434,VALID,22.2388,VALID,141,VALID,0,
2016-02-02, 07:45:04,VALID,918.402,VALID,0,VALID,84.8181,VALID,157.938,VALID,22.2974,VALID,141,VALID,0,
2016-02-02, 07:46:04,VALID,918.393,VALID,0,VALID,85.0849,VALID,163.525,VALID,22.3754,VALID,141,VALID,0,
2016-02-02, 07:47:04,VALID,918.385,VALID,0,VALID,86.4114,VALID,163.418,VALID,22.3754,VALID,100,VALID,0,
2016-02-02, 07:48:04,VALID,918.377,VALID,0,VALID,84.658,VALID,158.905,VALID,22.2583,VALID,80,VALID,0,
2016-02-02, 07:49:04,VALID,918.431,VALID,0,VALID,86.7011,VALID,155.575,VALID,22.0632,VALID,85,VALID,0,
2016-02-02, 07:50:04,VALID,918.431,VALID,0,VALID,94.2102,VALID,152.996,VALID,21.9266,VALID,101,VALID,0,
2016-02-02, 07:51:04,VALID,918.444,VALID,0,VALID,97.4349,VALID,147.946,VALID,21.829,VALID,88,VALID,0,
2016-02-02, 07:52:04,VALID,918.421,VALID,0,VALID,99.4398,VALID,149.88,VALID,21.7493,VALID,105,VALID,0,
2016-02-02, 07:53:04,VALID,918.425,VALID,0,VALID,98.9672,VALID,152.996,VALID,21.751,VALID,102,VALID,0,
2016-02-02, 07:54:04,VALID,918.438,VALID,0,VALID,99.8439,VALID,160.087,VALID,21.7103,VALID,104,VALID,0.869922,
2016-02-02, 07:55:04,VALID,918.461,VALID,0,VALID,100.698,VALID,165.137,VALID,21.6908,VALID,128,VALID,0.0289063,
2016-02-02, 07:56:04,VALID,918.467,VALID,0,VALID,99.9506,VALID,183.724,VALID,21.7103,VALID,125,VALID,0,
2016-02-02, 07:57:04,VALID,918.529,VALID,0,VALID,97.9228,VALID,198.766,VALID,21.7493,VALID,133,VALID,0,
2016-02-02, 07:58:04,VALID,918.555,VALID,0,VALID,98.2277,VALID,208.006,VALID,21.829,VALID,133,VALID,0,
2016-02-02, 07:59:04,VALID,918.566,VALID,0,VALID,94.5151,VALID,220.684,VALID,21.8681,VALID,133,VALID,0,
2016-02-02, 08:00:04,VALID,918.587,VALID,0,VALID,95.3689,VALID,226.808,VALID,21.964,VALID,131,VALID,0,
2016-02-02, 08:01:04,VALID,918.633,VALID,0,VALID,97.3434,VALID,231.643,VALID,22.042,VALID,126,VALID,0,
2016-02-02, 08:02:04,VALID,918.674,VALID,0,VALID,90.3375,VALID,234.437,VALID,22.1005,VALID,126,VALID,0,
2016-02-02, 08:03:04,VALID,918.674,VALID,0,VALID,86.2056,VALID,226.916,VALID,22.1201,VALID,119,VALID,0,
2016-02-02, 08:04:04,VALID,918.683,VALID,0,VALID,86.2589,VALID,220.792,VALID,22.1574,VALID,119,VALID,0,
2016-02-02, 08:05:04,VALID,918.694,VALID,0,VALID,82.7141,VALID,215.205,VALID,22.2371,VALID,77,VALID,0,
2016-02-02, 08:06:04,VALID,918.699,VALID,0,VALID,87.0975,VALID,210.37,VALID,22.3152,VALID,73,VALID,0,
2016-02-02, 08:07:04,VALID,918.725,VALID,0,VALID,85.0545,VALID,217.676,VALID,22.3525,VALID,73,VALID,0,
2016-02-02, 08:08:04,VALID,918.722,VALID,0,VALID,84.7495,VALID,186.196,VALID,22.4518,VALID,73,VALID,0,
2016-02-02, 08:09:04,VALID,918.729,VALID,0,VALID,85.0849,VALID,190.815,VALID,22.4323,VALID,113,VALID,0,
2016-02-02, 08:10:04,VALID,918.729,VALID,0,VALID,84.3988,VALID,194.039,VALID,22.4323,VALID,115,VALID,0,
2016-02-02, 08:11:04,VALID,918.736,VALID,0,VALID,82.0889,VALID,214.023,VALID,22.4518,VALID,115,VALID,0,
2016-02-02, 08:12:04,VALID,918.76,VALID,0,VALID,82.4854,VALID,219.395,VALID,22.5299,VALID,115,VALID,0,
2016-02-02, 08:13:04,VALID,918.792,VALID,0,VALID,82.3329,VALID,212.841,VALID,22.6452,VALID,115,VALID,0,
2016-02-02, 08:14:04,VALID,918.789,VALID,0,VALID,81.723,VALID,221.006,VALID,22.7836,VALID,93,VALID,0,
2016-02-02, 08:15:04,VALID,918.805,VALID,0,VALID,80.7701,VALID,207.254,VALID,22.8599,VALID,93,VALID,0,
2016-02-02, 08:16:04,VALID,918.811,VALID,0,VALID,81.0826,VALID,170.294,VALID,22.9202,VALID,93,VALID,0,
2016-02-02, 08:17:04,VALID,918.824,VALID,0,VALID,80.8768,VALID,176.096,VALID,22.9592,VALID,85,VALID,0,
2016-02-02, 08:18:04,VALID,918.794,VALID,0,VALID,79.9391,VALID,176.633,VALID,22.8812,VALID,85,VALID,0,
2016-02-02, 08:19:04,VALID,918.812,VALID,0,VALID,80.3432,VALID,201.882,VALID,22.8014,VALID,86,VALID,0,
2016-02-02, 08:20:04,VALID,918.784,VALID,0,VALID,81.0293,VALID,210.262,VALID,22.725,VALID,87,VALID,0,
2016-02-02, 08:21:04,VALID,918.801,VALID,0,VALID,80.9912,VALID,224.122,VALID,22.8031,VALID,88,VALID,0,
2016-02-02, 08:22:04,VALID,918.828,VALID,0,VALID,80.3356,VALID,215.097,VALID,22.8794,VALID,88,VALID,0,
2016-02-02, 08:23:04,VALID,918.833,VALID,0,VALID,81.1665,VALID,166.749,VALID,22.9007,VALID,87,VALID,0,
2016-02-02, 08:24:04,VALID,918.843,VALID,0,VALID,82.9656,VALID,165.459,VALID,22.977,VALID,71,VALID,0,
2016-02-02, 08:25:04,VALID,918.84,VALID,0,VALID,81.6849,VALID,165.674,VALID,23.0356,VALID,71,VALID,0,
2016-02-02, 08:26:04,VALID,918.883,VALID,0,VALID,81.5172,VALID,165.137,VALID,23.1154,VALID,71,VALID,0,
2016-02-02, 08:27:04,VALID,918.865,VALID,0,VALID,80.8463,VALID,162.558,VALID,23.1331,VALID,71,VALID,0,
2016-02-02, 08:28:04,VALID,918.887,VALID,0,VALID,80.0154,VALID,158.798,VALID,23.1136,VALID,71,VALID,0,
2016-02-02, 08:29:04,VALID,918.887,VALID,0,VALID,80.4347,VALID,157.509,VALID,22.9575,VALID,71,VALID,0,
2016-02-02, 08:30:04,VALID,918.869,VALID,0,VALID,81.2275,VALID,158.368,VALID,22.8989,VALID,71,VALID,0,
2016-02-02, 08:31:04,VALID,918.872,VALID,0,VALID,82.2795,VALID,161.914,VALID,22.8794,VALID,71,VALID,0,
2016-02-02, 08:32:04,VALID,918.88,VALID,0,VALID,82.8208,VALID,166.534,VALID,22.8989,VALID,71,VALID,0,
2016-02-02, 08:33:04,VALID,918.952,VALID,0,VALID,83.2401,VALID,170.724,VALID,22.8989,VALID,71,VALID,0,
2016-02-02, 08:34:04,VALID,918.937,VALID,0,VALID,83.6289,VALID,174.055,VALID,22.938,VALID,71,VALID,0,
2016-02-02, 08:35:04,VALID,918.93,VALID,0,VALID,83.4459,VALID,177.063,VALID,22.977,VALID,71,VALID,0,
2016-02-02, 08:36:04,VALID,918.96,VALID,0,VALID,83.0724,VALID,181.468,VALID,23.0356,VALID,71,VALID,0,
2016-02-02, 08:37:04,VALID,918.956,VALID,0,VALID,82.4396,VALID,187.915,VALID,23.0551,VALID,71,VALID,0,
2016-02-02, 08:38:04,VALID,918.96,VALID,0,VALID,83.0495,VALID,198.551,VALID,23.0746,VALID,71,VALID,0,
2016-02-02, 08:39:04,VALID,918.979,VALID,0,VALID,81.2504,VALID,207.576,VALID,23.0959,VALID,114,VALID,0,
2016-02-02, 08:40:04,VALID,918.997,VALID,0,VALID,80.4499,VALID,218.643,VALID,23.0178,VALID,114,VALID,0,
2016-02-02, 08:41:04,VALID,918.99,VALID,0,VALID,80.5948,VALID,233.255,VALID,22.9185,VALID,114,VALID,0,
2016-02-02, 08:42:04,VALID,918.987,VALID,0,VALID,81.4714,VALID,344.564,VALID,22.8989,VALID,114,VALID,0,
2016-02-02, 08:43:04,VALID,919.018,VALID,0,VALID,82.0661,VALID,342.845,VALID,22.938,VALID,114,VALID,0,
2016-02-02, 08:44:04,VALID,919,VALID,0,VALID,81.8831,VALID,358.209,VALID,23.0356,VALID,114,VALID,0,
2016-02-02, 08:45:04,VALID,919.006,VALID,0,VALID,80.8158,VALID,308.141,VALID,23.2325,VALID,114,VALID,0,
2016-02-02, 08:46:04,VALID,919.014,VALID,0,VALID,79.5046,VALID,279.562,VALID,23.3869,VALID,114,VALID,0,
2016-02-02, 08:47:04,VALID,919.01,VALID,0,VALID,78.788,VALID,292.347,VALID,23.4454,VALID,114,VALID,0,
2016-02-02, 08:48:04,VALID,919.015,VALID,0,VALID,78.3535,VALID,261.082,VALID,23.5448,VALID,114,VALID,0,
2016-02-02, 08:49:04,VALID,919.032,VALID,0,VALID,78.1934,VALID,252.487,VALID,23.6602,VALID,114,VALID,0,
2016-02-02, 08:50:04,VALID,919.024,VALID,0,VALID,77.9113,VALID,263.231,VALID,23.8554,VALID,114,VALID,0,
2016-02-02, 08:51:04,VALID,919.046,VALID,0,VALID,76.6687,VALID,245.503,VALID,24.0701,VALID,114,VALID,0,
2016-02-02, 08:52:04,VALID,919.057,VALID,0,VALID,75.3651,VALID,238.949,VALID,24.2849,VALID,115,VALID,0,
2016-02-02, 08:53:04,VALID,919.042,VALID,0,VALID,72.9408,VALID,276.554,VALID,24.2458,VALID,114,VALID,0,
2016-02-02, 08:54:04,VALID,919.058,VALID,0,VALID,74.214,VALID,306.207,VALID,24.2049,VALID,114,VALID,0,
2016-02-02, 08:55:04,VALID,919.034,VALID,0,VALID,71.1036,VALID,347.035,VALID,24.1873,VALID,114,VALID,0,
2016-02-02, 08:56:04,VALID,919.05,VALID,0,VALID,71.5915,VALID,332.423,VALID,24.2849,VALID,114,VALID,0,
2016-02-02, 08:57:04,VALID,919.017,VALID,0,VALID,70.265,VALID,294.066,VALID,24.4801,VALID,114,VALID,0,
2016-02-02, 08:58:04,VALID,919.009,VALID,0,VALID,69.9372,VALID,343.704,VALID,24.5778,VALID,114,VALID,0,
2016-02-02, 08:59:04,VALID,919.045,VALID,0,VALID,71.2256,VALID,391.301,VALID,24.6149,VALID,114,VALID,0,
2016-02-02, 09:00:04,VALID,919.041,VALID,0,VALID,73.9243,VALID,411.177,VALID,24.7144,VALID,118,VALID,0,
2016-02-02, 09:01:04,VALID,919.037,VALID,0,VALID,71.1493,VALID,441.798,VALID,24.5954,VALID,174,VALID,0,
2016-02-02, 09:02:04,VALID,919.021,VALID,0,VALID,71.6677,VALID,441.476,VALID,24.6345,VALID,183,VALID,0,
2016-02-02, 09:03:04,VALID,919.029,VALID,0,VALID,70.8978,VALID,452.005,VALID,24.7321,VALID,183,VALID,0,
2016-02-02, 09:04:04,VALID,919.017,VALID,0,VALID,69.4112,VALID,456.84,VALID,24.8102,VALID,178,VALID,0,
2016-02-02, 09:05:04,VALID,919.034,VALID,0,VALID,68.969,VALID,454.261,VALID,25.025,VALID,178,VALID,0,
2016-02-02, 09:06:04,VALID,919.045,VALID,0,VALID,68.2524,VALID,460.708,VALID,25.2593,VALID,178,VALID,0,
2016-02-02, 09:07:04,VALID,919.055,VALID,0,VALID,67.1089,VALID,477.146,VALID,25.5132,VALID,189,VALID,0,
2016-02-02, 09:08:04,VALID,919.05,VALID,0,VALID,65.9959,VALID,288.587,VALID,25.5503,VALID,205,VALID,0,
2016-02-02, 09:09:04,VALID,919.1,VALID,0,VALID,65.8434,VALID,446.311,VALID,25.4527,VALID,205,VALID,0,
2016-02-02, 09:10:04,VALID,919.072,VALID,0,VALID,66.7887,VALID,420.632,VALID,25.5718,VALID,204,VALID,0,
2016-02-02, 09:11:04,VALID,919.097,VALID,0,VALID,66.095,VALID,490.791,VALID,25.689,VALID,202,VALID,0,
2016-02-02, 09:12:04,VALID,919.084,VALID,0,VALID,68.1305,VALID,267.958,VALID,25.6089,VALID,206,VALID,0,
2016-02-02, 09:13:04,VALID,919.094,VALID,0,VALID,69.8229,VALID,251.52,VALID,25.3765,VALID,206,VALID,0,
2016-02-02, 09:14:04,VALID,919.072,VALID,0,VALID,70.0211,VALID,238.304,VALID,25.1988,VALID,292,VALID,0,
2016-02-02, 09:15:04,VALID,919.081,VALID,0,VALID,71.5,VALID,227.775,VALID,24.9059,VALID,269,VALID,0,
2016-02-02, 09:16:04,VALID,919.092,VALID,0,VALID,70.3717,VALID,228.205,VALID,24.7321,VALID,269,VALID,0,
2016-02-02, 09:17:04,VALID,919.064,VALID,0,VALID,72.3462,VALID,230.891,VALID,24.6131,VALID,269,VALID,0,
2016-02-02, 09:18:04,VALID,919.058,VALID,0,VALID,72.1633,VALID,234.329,VALID,24.5759,VALID,269,VALID,0,
2016-02-02, 09:19:04,VALID,919.046,VALID,0,VALID,70.1964,VALID,240.453,VALID,24.6345,VALID,313,VALID,0,
2016-02-02, 09:20:04,VALID,919.047,VALID,0,VALID,68.5421,VALID,246.255,VALID,24.7516,VALID,313,VALID,0,
2016-02-02, 09:21:04,VALID,919.016,VALID,0,VALID,67.5206,VALID,246.792,VALID,24.8121,VALID,313,VALID,0,
2016-02-02, 09:22:04,VALID,919.012,VALID,0,VALID,67.3757,VALID,243.677,VALID,24.7907,VALID,313,VALID,0,
2016-02-02, 09:23:04,VALID,919.025,VALID,0,VALID,68.8776,VALID,239.271,VALID,24.8492,VALID,313,VALID,0,
2016-02-02, 09:24:04,VALID,919.003,VALID,0,VALID,72.9256,VALID,237.875,VALID,24.8102,VALID,51,VALID,0,
2016-02-02, 09:25:04,VALID,918.996,VALID,0,VALID,74.1911,VALID,238.304,VALID,24.5173,VALID,51,VALID,0,
2016-02-02, 09:26:04,VALID,918.985,VALID,0,VALID,76.7754,VALID,247.974,VALID,24.283,VALID,42,VALID,0,
2016-02-02, 09:27:04,VALID,918.984,VALID,0,VALID,75.1364,VALID,257.966,VALID,24.1659,VALID,27,VALID,0,
2016-02-02, 09:28:04,VALID,919.002,VALID,0,VALID,74.4732,VALID,263.338,VALID,24.0488,VALID,27,VALID,0,
2016-02-02, 09:29:04,VALID,919,VALID,0,VALID,76.0664,VALID,256.462,VALID,23.9884,VALID,27,VALID,0,
2016-02-02, 09:30:04,VALID,919.041,VALID,0,VALID,76.7221,VALID,246.577,VALID,24.0292,VALID,51,VALID,0,
2016-02-02, 09:31:04,VALID,919.052,VALID,0,VALID,77.2938,VALID,236.908,VALID,24.0878,VALID,26,VALID,0,
2016-02-02, 09:32:04,VALID,919.096,VALID,0,VALID,77.37,VALID,225.412,VALID,24.1269,VALID,26,VALID,0,
2016-02-02, 09:33:04,VALID,919.067,VALID,0,VALID,75.0906,VALID,216.386,VALID,24.1073,VALID,34,VALID,0,
2016-02-02, 09:34:04,VALID,919.11,VALID,0,VALID,77.1032,VALID,210.692,VALID,24.1055,VALID,358,VALID,0,
2016-02-02, 09:35:04,VALID,919.105,VALID,0,VALID,78.1248,VALID,205.535,VALID,24.1055,VALID,356,VALID,0,
2016-02-02, 09:36:04,VALID,919.129,VALID,0,VALID,75.0449,VALID,204.031,VALID,24.0488,VALID,360,VALID,1.27617,
2016-02-02, 09:37:04,VALID,919.111,VALID,0,VALID,76.6687,VALID,207.361,VALID,23.9884,VALID,352,VALID,1.14883,
2016-02-02, 09:38:04,VALID,919.085,VALID,0,VALID,76.5696,VALID,215.312,VALID,23.9689,VALID,346,VALID,0.815625,
2016-02-02, 09:39:04,VALID,919.088,VALID,0,VALID,77.1413,VALID,223.048,VALID,23.9902,VALID,346,VALID,0.392969,
2016-02-02, 09:40:04,VALID,919.114,VALID,0,VALID,72.148,VALID,222.726,VALID,23.9707,VALID,12,VALID,0.991797,
2016-02-02, 09:41:04,VALID,919.115,VALID,0,VALID,72.4225,VALID,214.238,VALID,23.9103,VALID,6,VALID,1.09102,
2016-02-02, 09:42:04,VALID,919.12,VALID,0,VALID,76.0359,VALID,209.295,VALID,23.8517,VALID,7,VALID,0.995313,
2016-02-02, 09:43:04,VALID,919.13,VALID,0,VALID,76.9965,VALID,206.824,VALID,23.8145,VALID,9,VALID,0.829297,
2016-02-02, 09:44:04,VALID,919.1,VALID,0,VALID,76.8135,VALID,206.824,VALID,23.7755,VALID,9,VALID,0.251563,
2016-02-02, 09:45:04,VALID,919.086,VALID,0,VALID,77.5759,VALID,206.717,VALID,23.8127,VALID,9,VALID,0.348047,
2016-02-02, 09:46:04,VALID,919.084,VALID,0,VALID,77.9342,VALID,206.502,VALID,23.9103,VALID,9,VALID,0,
2016-02-02, 09:47:04,VALID,919.07,VALID,0,VALID,74.6942,VALID,207.254,VALID,24.0469,VALID,8,VALID,0,
2016-02-02, 09:48:04,VALID,919.061,VALID,0,VALID,71.157,VALID,209.725,VALID,24.125,VALID,340,VALID,0,
2016-02-02, 09:49:04,VALID,919.047,VALID,0,VALID,71.5076,VALID,214.99,VALID,24.1464,VALID,340,VALID,0,
2016-02-02, 09:50:04,VALID,919.071,VALID,0,VALID,71.6372,VALID,220.792,VALID,24.1055,VALID,340,VALID,0,
2016-02-02, 09:51:04,VALID,919.069,VALID,0,VALID,73.2915,VALID,224.445,VALID,24.1659,VALID,340,VALID,0,
2016-02-02, 09:52:04,VALID,919.094,VALID,0,VALID,72.5978,VALID,226.593,VALID,24.2049,VALID,340,VALID,0,
2016-02-02, 09:53:04,VALID,919.065,VALID,0,VALID,73.4745,VALID,228.42,VALID,24.1641,VALID,340,VALID,0,
2016-02-02, 09:54:04,VALID,919.073,VALID,0,VALID,73.2763,VALID,231.536,VALID,24.2421,VALID,340,VALID,0,
2016-02-02, 09:55:04,VALID,919.051,VALID,0,VALID,73.4516,VALID,236.585,VALID,24.3202,VALID,340,VALID,0,
2016-02-02, 09:56:04,VALID,919.036,VALID,0,VALID,74.1072,VALID,242.71,VALID,24.4392,VALID,340,VALID,0,
2016-02-02, 09:57:04,VALID,919.048,VALID,0,VALID,72.674,VALID,244.966,VALID,24.4978,VALID,340,VALID,0,
2016-02-02, 09:58:04,VALID,919.055,VALID,0,VALID,71.4238,VALID,242.172,VALID,24.535,VALID,340,VALID,0,
2016-02-02, 09:59:04,VALID,919.011,VALID,0,VALID,68.3363,VALID,232.503,VALID,24.4569,VALID,340,VALID,0,
2016-02-02, 10:00:04,VALID,919.042,VALID,0,VALID,69.152,VALID,219.073,VALID,24.3416,VALID,340,VALID,0,
2016-02-02, 10:01:04,VALID,919.033,VALID,0,VALID,72.5063,VALID,210.047,VALID,24.2635,VALID,340,VALID,0,
2016-02-02, 10:02:04,VALID,919.04,VALID,0,VALID,71.1189,VALID,207.791,VALID,24.2049,VALID,340,VALID,0,
2016-02-02, 10:03:04,VALID,919.024,VALID,0,VALID,73.5583,VALID,210.8,VALID,24.1641,VALID,332,VALID,0,
2016-02-02, 10:04:04,VALID,919.025,VALID,0,VALID,72.5368,VALID,212.196,VALID,24.125,VALID,331,VALID,0,
2016-02-02, 10:05:04,VALID,919.061,VALID,0,VALID,71.0426,VALID,207.361,VALID,24.1269,VALID,331,VALID,0,
2016-02-02, 10:06:04,VALID,919.041,VALID,0,VALID,70.852,VALID,200.808,VALID,24.1269,VALID,331,VALID,0,
2016-02-02, 10:07:04,VALID,919.035,VALID,0,VALID,71.805,VALID,197.155,VALID,24.1464,INVALID,360,VALID,0,
2016-02-02, 10:08:04,VALID,919.006,VALID,0,VALID,72.9332,VALID,193.179,VALID,24.2031,VALID,331,VALID,0,
2016-02-02, 10:09:04,VALID,919.03,VALID,0,VALID,71.4085,VALID,184.799,VALID,24.2617,VALID,331,VALID,0,
2016-02-02, 10:10:04,VALID,919.013,VALID,0,VALID,72.857,VALID,169.22,VALID,24.3007,VALID,331,VALID,0,
2016-02-02, 10:11:04,VALID,919.033,VALID,0,VALID,72.613,VALID,155.575,VALID,24.3983,VALID,331,VALID,0,
2016-02-02, 10:12:04,VALID,919.041,VALID,0,VALID,73.7413,VALID,144.723,VALID,24.4178,VALID,331,VALID,0,
2016-02-02, 10:13:04,VALID,919.026,VALID,0,VALID,73.8557,VALID,135.161,VALID,24.4783,VALID,331,VALID,0,
2016-02-02, 10:14:04,VALID,919.013,VALID,0,VALID,71.3094,VALID,124.524,VALID,24.4587,VALID,331,VALID,0,
2016-02-02, 10:15:04,VALID,918.99,VALID,0,VALID,73.4516,VALID,115.069,VALID,24.3788,VALID,331,VALID,0,
2016-02-02, 10:19:04,VALID,918.964,VALID,0,VALID,77.8427,VALID,110.342,VALID,24.4002,VALID,334,VALID,0,
2016-02-02, 10:20:04,VALID,919.008,VALID,0,VALID,73.3373,VALID,120.871,VALID,24.3026,VALID,338,VALID,0,
2016-02-02, 10:21:04,VALID,918.994,VALID,0,VALID,74.4198,VALID,135.591,VALID,24.2245,VALID,338,VALID,0,
2016-02-02, 10:22:04,VALID,918.988,VALID,0,VALID,76.5391,VALID,154.178,VALID,24.2049,VALID,338,VALID,0,
2016-02-02, 10:23:04,VALID,918.978,VALID,0,VALID,76.6687,VALID,173.303,VALID,24.244,VALID,338,VALID,0,
2016-02-02, 10:24:04,VALID,918.962,VALID,0,VALID,77.2709,VALID,190.386,VALID,24.3007,VALID,338,VALID,0,
2016-02-02, 10:25:04,VALID,918.926,VALID,0,VALID,76.9203,VALID,192.749,VALID,24.3398,VALID,338,VALID,0,
2016-02-02, 10:26:04,VALID,918.935,VALID,0,VALID,77.1032,VALID,192.964,VALID,24.4197,VALID,338,VALID,0,
2016-02-02, 10:27:04,VALID,918.921,VALID,0,VALID,77.8732,VALID,191.675,VALID,24.4587,VALID,338,VALID,0,
2016-02-02, 10:28:04,VALID,918.918,VALID,0,VALID,77.9647,VALID,192.212,VALID,24.5564,VALID,338,VALID,0,
2016-02-02, 10:29:04,VALID,918.89,VALID,0,VALID,75.8225,VALID,193.287,VALID,24.6149,VALID,338,VALID,0,
2016-02-02, 10:30:04,VALID,918.89,VALID,0,VALID,76.7907,VALID,198.014,VALID,24.6345,VALID,338,VALID,0,
2016-02-02, 10:31:04,VALID,918.907,VALID,0,VALID,77.2328,VALID,207.469,VALID,24.5954,VALID,338,VALID,0,
2016-02-02, 10:32:04,VALID,918.892,VALID,0,VALID,75.9826,VALID,221.866,VALID,24.6149,VALID,338,VALID,0,
2016-02-02, 10:33:04,VALID,918.873,VALID,0,VALID,75.4489,VALID,236.693,VALID,24.5954,VALID,338,VALID,0,
2016-02-02, 10:34:04,VALID,918.877,VALID,0,VALID,75.0525,VALID,251.52,VALID,24.5759,VALID,338,VALID,0,
2016-02-02, 10:35:04,VALID,918.855,VALID,0,VALID,73.1543,VALID,268.281,VALID,24.574,VALID,304,VALID,0,
2016-02-02, 10:36:04,VALID,918.874,VALID,0,VALID,75.4871,VALID,286.546,VALID,24.4959,VALID,303,VALID,0,
2016-02-02, 10:37:04,VALID,918.856,VALID,0,VALID,75.1821,VALID,312.224,VALID,24.5954,VALID,302,VALID,0,
2016-02-02, 10:38:04,VALID,918.858,VALID,0,VALID,73.7032,VALID,350.473,VALID,24.693,VALID,302,VALID,0,
2016-02-02, 10:39:04,VALID,918.837,VALID,0,VALID,73.7642,VALID,438.038,VALID,24.8297,VALID,317,VALID,0,
2016-02-02, 10:40:04,VALID,918.838,VALID,0,VALID,72.1785,VALID,442.55,VALID,25.025,VALID,317,VALID,0,
2016-02-02, 10:41:04,VALID,918.852,VALID,0,VALID,73.2229,VALID,459.418,VALID,25.1031,VALID,318,VALID,0,
2016-02-02, 10:42:04,VALID,918.836,VALID,0,VALID,73.8252,VALID,445.988,VALID,25.1617,VALID,315,VALID,0,
2016-02-02, 10:43:04,VALID,918.838,VALID,0,VALID,72.4301,VALID,445.344,VALID,25.2965,VALID,9,VALID,0,
2016-02-02, 10:44:04,VALID,918.823,VALID,0,VALID,69.2054,VALID,474.353,VALID,25.357,VALID,4,VALID,0,
2016-02-02, 10:45:04,VALID,918.851,VALID,0,VALID,69.6399,VALID,484.774,VALID,25.4136,VALID,4,VALID,0,
2016-02-02, 10:46:04,VALID,918.823,VALID,0,VALID,69.3502,VALID,502.502,VALID,25.6284,VALID,4,VALID,0,
2016-02-02, 10:47:04,VALID,918.855,VALID,0,VALID,68.0085,VALID,517.329,VALID,25.8823,VALID,2,VALID,0,
2016-02-02, 10:48:04,VALID,918.844,VALID,0,VALID,67.6349,VALID,511.312,VALID,26.0386,VALID,303,VALID,0,
2016-02-02, 10:49:04,VALID,918.863,VALID,0,VALID,66.7506,VALID,493.477,VALID,25.982,VALID,269,VALID,0,
2016-02-02, 10:50:04,VALID,918.865,VALID,0,VALID,64.3416,VALID,478.758,VALID,25.8823,VALID,254,VALID,0.0164062,
2016-02-02, 10:51:04,VALID,918.874,VALID,0,VALID,64.7838,VALID,428.153,VALID,25.7261,VALID,215,VALID,0.978125,
2016-02-02, 10:52:04,VALID,918.851,VALID,0,VALID,65.7367,VALID,399.896,VALID,25.648,VALID,209,VALID,1.01445,
2016-02-02, 10:53:04,VALID,918.837,VALID,0,VALID,66.7659,VALID,395.598,VALID,25.6089,VALID,209,VALID,0.570313,
2016-02-02, 10:54:04,VALID,918.828,VALID,0,VALID,67.9018,VALID,395.921,VALID,25.6089,VALID,208,VALID,0,
2016-02-02, 10:55:04,VALID,918.762,VALID,0,VALID,67.574,VALID,391.73,VALID,25.4527,VALID,242,VALID,0,
2016-02-02, 10:56:04,VALID,918.746,VALID,0,VALID,67.5816,VALID,380.557,VALID,25.4331,VALID,242,VALID,0,
2016-02-02, 10:57:04,VALID,918.719,VALID,0,VALID,67.9551,VALID,367.341,VALID,25.355,VALID,242,VALID,0,
2016-02-02, 10:58:04,VALID,918.706,VALID,0,VALID,67.5053,VALID,360.787,VALID,25.1988,VALID,242,VALID,0,
2016-02-02, 10:59:04,VALID,918.711,VALID,0,VALID,67.6426,VALID,366.159,VALID,25.1402,VALID,242,VALID,0,
2016-02-02, 11:00:04,VALID,918.702,VALID,0,VALID,69.4341,VALID,357.134,VALID,25.0621,VALID,242,VALID,0,
2016-02-02, 11:01:04,VALID,918.67,VALID,0,VALID,68.565,VALID,368.953,VALID,24.9821,VALID,228,VALID,0,
2016-02-02, 11:02:04,VALID,918.693,VALID,0,VALID,68.382,VALID,380.986,VALID,25.0426,VALID,226,VALID,0,
2016-02-02, 11:03:04,VALID,918.683,VALID,0,VALID,68.809,VALID,388.615,VALID,25.0426,VALID,238,VALID,0,
2016-02-02, 11:04:04,VALID,918.636,VALID,0,VALID,70.3336,VALID,393.235,VALID,25.1207,VALID,242,VALID,0,
2016-02-02, 11:05:04,VALID,918.598,VALID,0,VALID,69.0072,VALID,395.491,VALID,25.2379,VALID,242,VALID,0,
2016-02-02, 11:06:04,VALID,918.616,VALID,0,VALID,69.2587,VALID,400.326,VALID,25.316,VALID,239,VALID,0,
2016-02-02, 11:07:04,VALID,918.597,VALID,0,VALID,67.8027,VALID,402.475,VALID,25.3531,VALID,239,VALID,0,
2016-02-02, 11:08:04,VALID,918.609,VALID,0,VALID,67.4596,VALID,402.367,VALID,25.3726,VALID,229,VALID,0,
2016-02-02, 11:09:04,VALID,918.593,VALID,0,VALID,67.0784,VALID,403.334,VALID,25.4722,VALID,232,VALID,0,
2016-02-02, 11:10:04,VALID,918.564,VALID,0,VALID,67.0098,VALID,404.301,VALID,25.4937,VALID,232,VALID,0,
2016-02-02, 11:11:04,VALID,918.573,VALID,0,VALID,67.7417,VALID,404.946,VALID,25.5698,VALID,234,VALID,0,
2016-02-02, 11:12:04,VALID,918.566,VALID,0,VALID,67.9551,VALID,406.02,VALID,25.687,VALID,231,VALID,0,
2016-02-02, 11:13:04,VALID,918.541,VALID,0,VALID,67.1547,VALID,411.607,VALID,25.7671,VALID,253,VALID,0,